User: anonymous   Login
Location: Unspecified
(0.0000°N, 0.0000°E)
Time: 12:53:59
(UTC+00:00)
Language:

USA 48 - Orbit

View from above orbital plane
View from above orbital plane
View from above satellite
View from above satellite

Ground track
Ground track

The orbit is defined by the following mean orbital elements,

1 20355U          26146.22946943 +.00000000 +00000-0 +00000-0 0 00006
2 20355  16.9034 340.9931 0291725 114.5393 254.7599  1.00734834    02
Epoch (UTC): 26 May 2026 05:30:26
Eccentricity: 0.0291725
inclination: 16.9034°
perigee height: 34431 km
apogee height: 36884 km
right ascension of ascending node: 340.9931°
argument of perigee: 114.5393°
revolutions per day: 1.00734834
mean anomaly at epoch: 254.7599°

The dashed part of the orbit path shows where the satellite is in the earth's shadow,  

DLR